| time (UTC) | temp F | wind direction | speed knots | gust knots | rain 1hr in | rain 24hr in | rain mn in | humidity % | barometer mb |
| 20260507040105 | 58 | 324 | 2.6 | 4.3 | 0.00 | 0.08 | 0.00 | 86 | 1007.0 |
| 20260507035028 | 59 | 327 | 3.5 | 7.0 | 0.00 | 0.08 | 0.08 | 88 | 1007.1 |
| 20260507034024 | 59 | 310 | 0.9 | 3.5 | 0.00 | 0.08 | 0.08 | 90 | 1006.9 |
| 20260507033020 | 59 | 322 | 0.9 | 2.6 | 0.00 | 0.08 | 0.08 | 91 | 1006.6 |
| 20260507032026 | 59 | 335 | 0.9 | 4.3 | 0.00 | 0.08 | 0.08 | 92 | 1006.5 |
| 20260507031019 | 59 | 306 | 0.9 | 2.6 | 0.00 | 0.08 | 0.08 | 92 | 1006.4 |
| 20260507030021 | 59 | 0.0 | 0.0 | 0.00 | 0.08 | 0.08 | 92 | 1006.3 | |
| 20260507025025 | 59 | 0.0 | 0.0 | 0.00 | 0.08 | 0.08 | 92 | 1006.0 | |
| 20260507024044 | 59 | 0.0 | 0.0 | 0.00 | 0.08 | 0.08 | 92 | 1006.0 | |
| 20260507023039 | 59 | 0.0 | 0.0 | 0.00 | 0.08 | 0.08 | 91 | 1006.1 | |
| 20260507022026 | 59 | 0.0 | 0.0 | 0.00 | 0.08 | 0.08 | 91 | 1006.2 | |
| 20260507021023 | 59 | 0.0 | 0.9 | 0.00 | 0.08 | 0.08 | 91 | 1006.1 | |
| 20260507020019 | 59 | 0.0 | 0.9 | 0.00 | 0.08 | 0.08 | 91 | 1006.1 | |
| 20260507015101 | 59 | 268 | 0.0 | 1.7 | 0.00 | 0.08 | 0.08 | 91 | 1006.1 |
| 20260507014026 | 59 | 0.0 | 0.0 | 0.00 | 0.08 | 0.08 | 91 | 1006.0 | |
| 20260507013023 | 59 | 139 | 1.7 | 3.5 | 0.00 | 0.08 | 0.08 | 92 | 1006.1 |
| 20260507012020 | 59 | 161 | 0.9 | 2.6 | 0.00 | 0.08 | 0.08 | 92 | 1006.1 |
| 20260507011023 | 59 | 105 | 0.9 | 2.6 | 0.00 | 0.08 | 0.08 | 92 | 1006.2 |
| 20260507010025 | 59 | 167 | 1.7 | 3.5 | 0.00 | 0.08 | 0.08 | 92 | 1006.2 |
| 20260507005044 | 59 | 161 | 0.9 | 3.5 | 0.00 | 0.08 | 0.08 | 92 | 1006.3 |
| 20260507004020 | 59 | 127 | 0.0 | 2.6 | 0.00 | 0.08 | 0.08 | 92 | 1006.2 |
| 20260507003025 | 59 | 143 | 0.0 | 2.6 | 0.00 | 0.08 | 0.08 | 92 | 1006.2 |
| 20260507002019 | 59 | 114 | 0.0 | 2.6 | 0.00 | 0.08 | 0.08 | 92 | 1006.1 |
| 20260507001023 | 59 | 140 | 0.0 | 2.6 | 0.00 | 0.08 | 0.08 | 92 | 1006.1 |
| 20260507000024 | 59 | 98 | 0.0 | 0.9 | 0.02 | 0.08 | 0.08 | 92 | 1005.9 |
| 20260506235023 | 59 | 148 | 0.9 | 3.5 | 0.02 | 0.08 | 0.08 | 92 | 1005.9 |
| 20260506234024 | 59 | 171 | 2.6 | 4.3 | 0.02 | 0.08 | 0.08 | 92 | 1005.8 |
| 20260506233024 | 59 | 167 | 0.9 | 2.6 | 0.02 | 0.08 | 0.08 | 92 | 1005.9 |
| 20260506232023 | 60 | 89 | 0.0 | 2.6 | 0.02 | 0.08 | 0.08 | 91 | 1005.9 |
| 20260506231026 | 60 | 160 | 0.0 | 1.7 | 0.02 | 0.08 | 0.08 | 91 | 1005.8 |
| 20260506230023 | 60 | 170 | 0.0 | 2.6 | 0.00 | 0.06 | 0.06 | 90 | 1005.9 |
| 20260506225020 | 60 | 182 | 1.7 | 3.5 | 0.00 | 0.06 | 0.06 | 90 | 1006.1 |
| 20260506224026 | 60 | 15 | 0.0 | 2.6 | 0.00 | 0.06 | 0.06 | 90 | 1006.1 |
| 20260506223040 | 60 | 0.0 | 0.0 | 0.00 | 0.06 | 0.06 | 90 | 1006.1 | |
| 20260506222027 | 60 | 160 | 0.0 | 1.7 | 0.01 | 0.06 | 0.06 | 89 | 1006.1 |
| 20260506221044 | 60 | 168 | 0.9 | 3.5 | 0.01 | 0.06 | 0.06 | 89 | 1006.3 |
| 20260506220024 | 61 | 198 | 0.9 | 3.5 | 0.01 | 0.06 | 0.06 | 89 | 1006.3 |
| 20260506215020 | 60 | 178 | 0.9 | 2.6 | 0.01 | 0.06 | 0.06 | 89 | 1006.3 |
| 20260506214025 | 60 | 201 | 0.9 | 2.6 | 0.01 | 0.06 | 0.06 | 89 | 1006.6 |
| 20260506213043 | 60 | 175 | 1.7 | 3.5 | 0.01 | 0.06 | 0.06 | 88 | 1006.7 |
| 20260506212140 | 60 | 164 | 0.9 | 2.6 | 0.00 | 0.05 | 0.05 | 88 | 1006.7 |
| 20260506211023 | 60 | 174 | 0.9 | 3.5 | 0.01 | 0.05 | 0.05 | 88 | 1006.8 |
| 20260506210026 | 60 | 141 | 0.9 | 2.6 | 0.01 | 0.05 | 0.05 | 88 | 1006.8 |
| 20260506205027 | 60 | 137 | 1.7 | 4.3 | 0.01 | 0.05 | 0.05 | 87 | 1006.9 |
| 20260506204020 | 60 | 158 | 2.6 | 6.1 | 0.01 | 0.05 | 0.05 | 87 | 1007.0 |
| 20260506203023 | 61 | 175 | 3.5 | 6.1 | 0.02 | 0.05 | 0.05 | 87 | 1007.0 |
| 20260506202045 | 61 | 179 | 0.9 | 3.5 | 0.03 | 0.05 | 0.05 | 87 | 1007.0 |
| 20260506201044 | 61 | 171 | 1.7 | 3.5 | 0.02 | 0.04 | 0.04 | 87 | 1007.1 |
| 20260506200019 | 61 | 184 | 1.7 | 6.1 | 0.03 | 0.04 | 0.04 | 86 | 1007.0 |
| 20260506195028 | 62 | 173 | 1.7 | 3.5 | 0.04 | 0.04 | 0.04 | 85 | 1007.0 |
| 20260506194023 | 62 | 156 | 1.7 | 4.3 | 0.04 | 0.04 | 0.04 | 85 | 1007.0 |
| 20260506193020 | 63 | 166 | 0.9 | 2.6 | 0.03 | 0.03 | 0.03 | 83 | 1007.0 |
| 20260506192044 | 64 | 179 | 0.9 | 3.5 | 0.02 | 0.02 | 0.02 | 81 | 1007.0 |
| 20260506191027 | 64 | 156 | 0.9 | 4.3 | 0.02 | 0.02 | 0.02 | 79 | 1007.0 |
| 20260506190024 | 65 | 168 | 0.9 | 3.5 | 0.01 | 0.01 | 0.01 | 77 | 1007.1 |
| 20260506185020 | 66 | 82 | 0.9 | 1.7 | 0.00 | 0.00 | 0.00 | 75 | 1007.1 |
| 20260506184024 | 68 | 134 | 1.7 | 3.5 | 0.00 | 0.00 | 0.00 | 70 | 1007.3 |
| 20260506183025 | 69 | 34 | 1.7 | 4.3 | 0.00 | 0.00 | 0.00 | 68 | 1007.3 |
| 20260506182043 | 70 | 149 | 2.6 | 6.1 | 0.00 | 0.00 | 0.00 | 63 | 1007.3 |
| 20260506181019 | 72 | 111 | 1.7 | 3.5 | 0.00 | 0.00 | 0.00 | 57 | 1007.2 |
| 20260506180046 | 73 | 161 | 0.9 | 5.2 | 0.00 | 0.00 | 0.00 | 53 | 1007.1 |
| 20260506175104 | 73 | 48 | 0.9 | 1.7 | 0.00 | 0.00 | 0.00 | 51 | 1007.2 |
| 20260506174020 | 74 | 123 | 2.6 | 6.1 | 0.00 | 0.00 | 0.00 | 50 | 1007.3 |
| 20260506173024 | 75 | 109 | 2.6 | 6.1 | 0.00 | 0.00 | 0.00 | 49 | 1007.3 |
| 20260506172024 | 75 | 146 | 1.7 | 4.3 | 0.00 | 0.00 | 0.00 | 50 | 1007.3 |
| 20260506171024 | 75 | 118 | 2.6 | 7.8 | 0.00 | 0.00 | 0.00 | 49 | 1007.4 |
| 20260506170026 | 75 | 41 | 1.7 | 4.3 | 0.00 | 0.00 | 0.00 | 48 | 1007.3 |
| 20260506165024 | 74 | 28 | 1.7 | 5.2 | 0.00 | 0.00 | 0.00 | 51 | 1007.4 |
| 20260506164019 | 73 | 123 | 2.6 | 5.2 | 0.00 | 0.00 | 0.00 | 53 | 1007.7 |
| 20260506163023 | 73 | 171 | 1.7 | 3.5 | 0.00 | 0.00 | 0.00 | 53 | 1007.8 |
| 20260506162020 | 73 | 123 | 1.7 | 6.1 | 0.00 | 0.00 | 0.00 | 54 | 1008.0 |
| 20260506161043 | 73 | 141 | 1.7 | 6.1 | 0.00 | 0.00 | 0.00 | 54 | 1008.2 |
| 20260506160020 | 72 | 89 | 0.9 | 5.2 | 0.00 | 0.00 | 0.00 | 55 | 1008.4 |
| 20260506155024 | 72 | 159 | 0.9 | 1.7 | 0.00 | 0.00 | 0.00 | 55 | 1008.6 |
| 20260506154025 | 72 | 52 | 0.9 | 2.6 | 0.00 | 0.00 | 0.00 | 55 | 1008.7 |
| 20260506153022 | 73 | 174 | 1.7 | 3.5 | 0.00 | 0.00 | 0.00 | 54 | 1008.8 |
| 20260506152019 | 73 | 128 | 2.6 | 5.2 | 0.00 | 0.00 | 0.00 | 55 | 1009.0 |
| 20260506151021 | 73 | 148 | 2.6 | 6.1 | 0.00 | 0.00 | 0.00 | 55 | 1009.0 |
| 20260506150024 | 73 | 358 | 0.9 | 1.7 | 0.00 | 0.00 | 0.00 | 56 | 1008.9 |
| 20260506145020 | 72 | 195 | 0.9 | 4.3 | 0.00 | 0.00 | 0.00 | 58 | 1009.1 |
| 20260506144021 | 71 | 63 | 3.5 | 5.2 | 0.00 | 0.00 | 0.00 | 58 | 1009.1 |
| 20260506143023 | 71 | 148 | 1.7 | 3.5 | 0.00 | 0.00 | 0.00 | 59 | 1009.1 |
| 20260506142023 | 71 | 192 | 0.9 | 2.6 | 0.00 | 0.00 | 0.00 | 59 | 1009.1 |
| 20260506141020 | 71 | 111 | 1.7 | 3.5 | 0.00 | 0.00 | 0.00 | 59 | 1009.0 |
| 20260506140023 | 70 | 110 | 1.7 | 4.3 | 0.00 | 0.00 | 0.00 | 61 | 1009.1 |
| 20260506135025 | 71 | 45 | 1.7 | 5.2 | 0.00 | 0.00 | 0.00 | 60 | 1009.2 |
| 20260506134024 | 70 | 153 | 1.7 | 2.6 | 0.00 | 0.00 | 0.00 | 63 | 1009.1 |
| 20260506133020 | 68 | 309 | 1.7 | 5.2 | 0.00 | 0.00 | 0.00 | 65 | 1009.6 |
| 20260506132026 | 67 | 174 | 0.9 | 2.6 | 0.00 | 0.00 | 0.00 | 67 | 1009.7 |
| 20260506131019 | 67 | 44 | 1.7 | 5.2 | 0.00 | 0.00 | 0.00 | 68 | 1009.8 |
| 20260506130024 | 67 | 164 | 4.3 | 6.1 | 0.00 | 0.00 | 0.00 | 67 | 1009.7 |
| 20260506125025 | 67 | 176 | 2.6 | 5.2 | 0.00 | 0.00 | 0.00 | 67 | 1009.7 |
| 20260506124023 | 67 | 188 | 1.7 | 2.6 | 0.00 | 0.00 | 0.00 | 69 | 1009.6 |
| 20260506123024 | 66 | 149 | 1.7 | 5.2 | 0.00 | 0.00 | 0.00 | 70 | 1009.8 |
| 20260506122026 | 65 | 128 | 1.7 | 2.6 | 0.00 | 0.00 | 0.00 | 72 | 1009.8 |
| 20260506121024 | 64 | 140 | 0.9 | 2.6 | 0.00 | 0.00 | 0.00 | 72 | 1009.8 |
| 20260506120019 | 63 | 128 | 1.7 | 3.5 | 0.00 | 0.00 | 0.00 | 73 | 1009.7 |
| 20260506115023 | 62 | 114 | 1.7 | 3.5 | 0.00 | 0.00 | 0.00 | 75 | 1009.9 |
| 20260506114019 | 62 | 168 | 0.9 | 2.6 | 0.00 | 0.00 | 0.00 | 75 | 1010.0 |
| 20260506113042 | 62 | 141 | 1.7 | 3.5 | 0.00 | 0.00 | 0.00 | 75 | 1010.2 |
| 20260506112019 | 62 | 215 | 0.9 | 3.5 | 0.00 | 0.00 | 0.00 | 76 | 1010.4 |
| 20260506111041 | 62 | 167 | 1.7 | 4.3 | 0.00 | 0.00 | 0.00 | 76 | 1010.1 |
| 20260506110025 | 61 | 173 | 0.9 | 1.7 | 0.00 | 0.00 | 0.00 | 77 | 1010.1 |
| 20260506105024 | 60 | 169 | 0.9 | 3.5 | 0.00 | 0.00 | 0.00 | 78 | 1010.1 |
| 20260506104020 | 60 | 152 | 0.9 | 2.6 | 0.00 | 0.00 | 0.00 | 78 | 1010.1 |
| 20260506103046 | 60 | 170 | 0.9 | 1.7 | 0.00 | 0.00 | 0.00 | 78 | 1010.0 |
| 20260506102024 | 60 | 119 | 0.0 | 1.7 | 0.00 | 0.00 | 0.00 | 78 | 1010.1 |
| 20260506101019 | 60 | 186 | 0.0 | 2.6 | 0.00 | 0.00 | 0.00 | 78 | 1010.1 |
| 20260506100024 | 60 | 180 | 0.9 | 4.3 | 0.00 | 0.00 | 0.00 | 78 | 1010.0 |
| 20260506095046 | 60 | 0.0 | 0.0 | 0.00 | 0.00 | 0.00 | 78 | 1010.0 | |
| 20260506094024 | 60 | 161 | 0.9 | 4.3 | 0.00 | 0.00 | 0.00 | 77 | 1009.8 |
| 20260506093020 | 60 | 0.0 | 1.7 | 0.00 | 0.00 | 0.00 | 77 | 1010.0 | |
| 20260506092024 | 60 | 168 | 0.9 | 2.6 | 0.00 | 0.00 | 0.00 | 77 | 1010.0 |
| 20260506091025 | 60 | 188 | 0.0 | 1.7 | 0.00 | 0.00 | 0.00 | 76 | 1009.9 |
| 20260506090023 | 60 | 167 | 0.9 | 2.6 | 0.00 | 0.00 | 0.00 | 76 | 1009.9 |
| 20260506085019 | 60 | 75 | 0.9 | 2.6 | 0.00 | 0.00 | 0.00 | 75 | 1010.1 |
| 20260506084049 | 60 | 182 | 0.9 | 2.6 | 0.00 | 0.00 | 0.00 | 75 | 1010.1 |
| 20260506083039 | 61 | 189 | 0.0 | 1.7 | 0.00 | 0.00 | 0.00 | 74 | 1010.0 |
| 20260506082020 | 61 | 167 | 0.9 | 2.6 | 0.00 | 0.00 | 0.00 | 74 | 1010.0 |
| 20260506081104 | 61 | 170 | 0.9 | 2.6 | 0.00 | 0.00 | 0.00 | 73 | 1010.0 |
| 20260506073022 | 62 | 96 | 0.9 | 1.7 | 0.00 | 0.00 | 0.00 | 71 | 1009.9 |
| 20260506072039 | 62 | 0.0 | 1.7 | 0.00 | 0.00 | 0.00 | 70 | 1009.8 | |
| 20260506071023 | 63 | 167 | 0.9 | 3.5 | 0.00 | 0.00 | 0.00 | 70 | 1009.6 |
| 20260506062024 | 64 | 74 | 0.9 | 2.6 | 0.00 | 0.00 | 0.00 | 66 | 1009.4 |
| 20260506061023 | 64 | 177 | 0.9 | 2.6 | 0.00 | 0.00 | 0.00 | 66 | 1009.4 |
| 20260506051020 | 64 | 170 | 2.6 | 3.5 | 0.00 | 0.00 | 0.00 | 63 | 1009.7 |
| 20260506045021 | 64 | 171 | 0.9 | 3.5 | 0.00 | 0.00 | 0.00 | 62 | 1009.8 |
| 20260506044024 | 64 | 177 | 0.9 | 2.6 | 0.00 | 0.00 | 0.00 | 62 | 1009.9 |
| 20260506043024 | 64 | 165 | 0.9 | 1.7 | 0.00 | 0.00 | 0.00 | 62 | 1009.9 |
| 20260506042023 | 64 | 0.9 | 2.6 | 0.00 | 0.00 | 0.00 | 63 | 1009.9 | |
| 20260506041024 | 63 | 180 | 0.0 | 1.7 | 0.00 | 0.00 | 0.00 | 63 | 1009.9 |